Location: Arbon
(43.0005°N, 0.7472°E)
Time: 15:19:26
(UTC+00:00)

Timation 2 Rocket - Pass Details

Date: 07 August 2020
Orbit: 907 x 1074 km, 70.0° (Epoch: 23 September)

Event Time Altitude Azimuth Distance (km) Brightness Sun altitude
Exits shadow 01:14:29 84° 219° (SW) 954 3.7 -28.4°
Maximum altitude 01:14:43 89° 291° (WNW) 948 3.8 -28.4°
Drops below altitude 10° 01:20:49 10° 26° (NNE) 2,625 7.2 -28.0°
Sets 01:23:17 0° 27° (NNE) 3,559 8.2 -27.9°
